PLEIADES NEO 4

Last updated on Mon Sep 21 2026 00:02:46 GMT+0000 (Coordinated Universal Time)

1 49070U 21073E 26263.64274823 .00000281 00000+0 42361-4 0 9998 2 49070 97.8947 337.0331 0001468 87.7160 272.4221 14.81674150275500
UTC large
Height (km)
Speed (km/s)
/
Latitude / Longitude
Inclination (degrees)
Orbital Period (minutes)
Azimuth
Elevation
Range (km)
Doppler Factor

Next 0 passes for location: London (51.5072 / 0.1276)

No passes found over London.
PLEIADES NEO 4